EW8288 Weather Reports


time (UTC)temp
F
wind
direction
speed
knots
gust
knots
rain 1hr
in
rain 24hr
in
rain mn
in
humidity
%
barometer
mb
20260507213224 58 197 0.0 0.9 0.00 0.00 0.00 68 1014.2
20260507212224 58 197 0.0 0.0 0.00 0.00 0.00 67 1014.2
20260507211226 58 197 0.0 0.0 0.00 0.00 0.00 67 1014.2
20260507210225 58 197 0.0 0.9 0.00 0.00 0.00 66 1014.2
20260507205226 58 197 0.0 0.0 0.00 0.00 0.00 66 1013.9
20260507204441 59 197 0.0 0.0 0.00 0.00 0.00 64 1013.9
20260507203440 59 197 0.0 0.0 0.00 0.00 0.00 64 1013.5
20260507202440 60 197 0.0 0.9 0.00 0.00 0.00 63 1013.5
20260507201224 60 197 0.0 0.0 0.00 0.00 0.00 63 1013.5
20260507200226 60 197 0.0 2.6 0.00 0.00 0.00 65 1013.2
20260507195226 60 197 0.0 1.7 0.00 0.00 0.00 67 1013.2
20260507194224 60 197 0.0 0.0 0.00 0.00 0.00 68 1013.2
20260507193224 60 197 0.0 0.9 0.00 0.00 0.00 69 1012.9
20260507192226 60 197 0.0 0.9 0.00 0.00 0.00 69 1012.9
20260507191442 60 197 0.0 0.0 0.00 0.00 0.00 68 1012.5
20260507190226 60 197 0.0 0.0 0.00 0.00 0.00 69 1012.5
20260507185439 60 197 0.0 0.0 0.00 0.00 0.00 71 1012.5
20260507184227 60 197 0.0 1.7 0.00 0.00 0.00 71 1012.2
20260507183225 60 197 0.0 0.9 0.00 0.00 0.00 71 1012.2
20260507182226 60 197 0.0 1.7 0.00 0.00 0.00 72 1012.2
20260507181225 60 197 0.0 1.7 0.00 0.00 0.00 72 1011.9
20260507180224 60 197 0.0 1.7 0.00 0.00 0.00 71 1011.9
20260507175225 60 197 0.0 0.9 0.00 0.00 0.00 70 1011.9
20260507174439 60 197 0.0 3.5 0.00 0.00 0.00 70 1011.5
20260507173227 60 197 0.0 4.3 0.00 0.00 0.00 70 1011.2
20260507172224 61 196 1.7 1.7 0.00 0.00 0.00 67 1011.2
20260507171232 62 196 0.0 4.3 0.00 0.00 0.00 63 1011.2
20260507170224 62 196 0.0 6.1 0.00 0.00 0.00 63 1010.8
20260507165226 62 211 2.6 5.2 0.00 0.00 0.00 63 1011.2
20260507164227 63 213 1.7 4.3 0.00 0.00 0.00 61 1010.8
20260507163440 63 205 1.7 6.1 0.00 0.00 0.00 58 1010.8
20260507162440 64 215 0.0 5.2 0.00 0.00 0.00 56 1010.8
20260507161225 64 215 0.0 5.2 0.00 0.00 0.00 56 1010.8
20260507160224 66 218 4.3 7.0 0.00 0.00 0.00 53 1010.8
20260507155224 67 205 1.7 3.5 0.00 0.00 0.00 46 1010.8
20260507154226 68 225 0.0 0.9 0.00 0.00 0.00 45 1010.5
20260507153224 69 229 0.0 0.0 0.00 0.00 0.00 43 1010.5
20260507152225 70 231 0.0 0.9 0.00 0.00 0.00 41 1010.5
20260507151225 72 232 0.0 1.7 0.00 0.00 0.00 37 1010.5
20260507150440 72 9 0.0 0.0 0.00 0.00 0.00 37 1010.5
20260507145226 72 9 0.0 0.9 0.00 0.00 0.00 36 1010.5
20260507144224 72 13 0.0 7.0 0.00 0.00 0.00 37 1010.5
20260507143226 71 360 0.0 0.9 0.00 0.00 0.00 39 1010.5
20260507142226 70 351 0.0 5.2 0.00 0.00 0.00 40 1010.5
20260507141224 71 207 0.0 0.0 0.00 0.00 0.00 38 1010.5
20260507140225 71 206 0.0 0.9 0.00 0.00 0.00 38 1010.5
20260507135226 72 206 0.0 0.9 0.00 0.00 0.00 37 1010.5
20260507134226 71 205 0.0 0.9 0.00 0.00 0.00 40 1010.5
20260507133441 69 205 0.0 1.7 0.00 0.00 0.00 41 1010.5
20260507132440 69 205 0.0 1.7 0.00 0.00 0.00 41 1010.5
20260507131441 70 205 0.0 2.6 0.00 0.00 0.00 41 1010.8
20260507130225 69 205 0.0 1.7 0.00 0.00 0.00 43 1010.8
20260507125226 70 205 0.0 1.7 0.00 0.00 0.00 42 1010.8
20260507124226 71 204 0.0 5.2 0.00 0.00 0.00 41 1010.8
20260507123227 69 222 0.0 3.5 0.00 0.00 0.00 45 1010.8
20260507122225 70 222 0.0 2.6 0.00 0.00 0.00 43 1011.2
20260507121227 68 221 0.0 0.9 0.00 0.00 0.00 45 1011.2
20260507120225 69 222 0.0 3.5 0.00 0.00 0.00 45 1011.2
20260507115225 68 221 0.0 6.1 0.00 0.00 0.00 46 1011.2
20260507114226 68 269 0.0 7.0 0.00 0.00 0.00 45 1011.5
20260507113438 68 248 0.0 2.6 0.00 0.00 0.00 47 1011.5
20260507112226 68 248 0.0 0.9 0.00 0.00 0.00 46 1011.5
20260507111225 68 248 0.0 7.8 0.00 0.00 0.00 47 1011.5
20260507110224 68 262 0.0 7.0 0.00 0.00 0.00 45 1011.5
20260507105227 68 261 0.0 7.0 0.00 0.00 0.00 46 1011.5
20260507104226 68 221 0.0 7.8 0.00 0.00 0.00 46 1011.5
20260507103235 68 244 0.0 6.1 0.00 0.00 0.00 46 1011.9
20260507102440 68 221 4.3 5.2 0.00 0.00 0.00 45 1011.9
20260507101224 66 219 0.9 3.5 0.00 0.00 0.00 50 1011.9
20260507100226 65 214 0.0 7.0 0.00 0.00 0.00 50 1011.9
20260507095226 66 223 0.0 6.1 0.00 0.00 0.00 51 1011.9
20260507094224 66 223 0.0 6.1 0.00 0.00 0.00 51 1011.9
20260507093226 65 216 2.6 4.3 0.00 0.00 0.00 54 1011.5
20260507092226 65 221 1.7 7.8 0.00 0.00 0.00 53 1011.5
20260507091226 65 217 0.0 7.0 0.00 0.00 0.00 54 1011.5
20260507090224 64 219 3.5 4.3 0.00 0.00 0.00 56 1011.2
20260507085224 64 219 0.0 6.1 0.00 0.00 0.00 57 1011.2
20260507084225 63 215 0.0 5.2 0.00 0.00 0.00 59 1011.2
20260507083441 62 215 0.0 3.5 0.00 0.00 0.00 60 1011.2
20260507082226 62 213 3.5 7.0 0.00 0.00 0.00 59 1011.2
20260507081225 62 217 2.6 7.0 0.00 0.00 0.00 59 1011.2
20260507080226 62 236 0.9 6.1 0.00 0.00 0.00 59 1011.2
20260507075224 62 214 1.7 5.2 0.00 0.00 0.00 61 1011.2
20260507074225 61 213 0.0 6.1 0.00 0.00 0.00 61 1010.8
20260507073226 61 224 0.0 3.5 0.00 0.00 0.00 63 1010.8
20260507072227 60 226 0.0 5.2 0.00 0.00 0.00 64 1010.8
20260507071236 60 227 1.7 3.5 0.00 0.00 0.00 65 1010.8
20260507070446 59 227 1.7 7.0 0.00 0.00 0.00 67 1010.5
20260507065226 58 205 0.9 8.7 0.00 0.00 0.00 69 1010.8
20260507064228 58 237 0.0 7.0 0.00 0.00 0.00 69 1010.5
20260507063227 58 221 0.0 7.0 0.00 0.00 0.00 71 1010.8
20260507062226 58 223 3.5 5.2 0.00 0.00 0.00 73 1010.5
20260507061227 57 221 1.7 4.3 0.00 0.00 0.00 74 1010.5
20260507060439 57 222 0.0 3.5 0.00 0.00 0.00 74 1010.5
20260507055227 58 222 0.0 4.3 0.00 0.00 0.00 74 1010.2
20260507054228 57 223 0.0 5.2 0.00 0.00 0.00 74 1010.2
20260507053225 57 221 0.0 0.0 0.00 0.00 0.00 75 1010.2
20260507052228 56 221 0.0 4.3 0.00 0.00 0.00 75 1010.2
20260507051441 56 221 1.7 7.8 0.00 0.00 0.00 75 1010.2
20260507050225 56 221 0.9 7.0 0.00 0.00 0.00 76 1009.8
20260507045226 56 217 0.9 5.2 0.00 0.00 0.00 76 1009.8
20260507044225 56 219 0.0 6.1 0.00 0.00 0.00 77 1009.5
20260507043225 55 217 2.6 5.2 0.00 0.00 0.00 78 1009.5
20260507042441 55 219 0.0 2.6 0.00 0.00 0.00 78 1009.1
20260507041226 55 219 0.0 3.5 0.00 0.00 0.00 78 1009.1
20260507040225 55 219 1.7 2.6 0.00 0.00 0.00 78 1009.1
20260507035227 55 219 0.0 1.7 0.00 0.00 0.00 78 1009.1
20260507034227 56 219 0.0 2.6 0.00 0.00 0.00 77 1008.8
20260507033227 56 219 0.0 3.5 0.00 0.00 0.00 76 1008.8
20260507032228 57 218 0.9 4.3 0.00 0.00 0.00 76 1008.8
20260507031442 57 219 1.7 4.3 0.00 0.00 0.00 76 1008.8
20260507030226 57 219 2.6 4.3 0.00 0.00 0.00 75 1008.5
20260507025225 57 219 1.7 4.3 0.00 0.00 0.00 75 1008.5
20260507024439 57 219 0.0 3.5 0.00 0.00 0.00 75 1008.5
20260507023226 58 219 0.0 2.6 0.00 0.00 0.00 75 1008.5
20260507022224 58 219 1.7 4.3 0.00 0.00 0.00 76 1008.5
20260507021440 58 219 0.0 1.7 0.00 0.00 0.00 76 1008.5
20260507020225 58 219 2.6 2.6 0.00 0.00 0.00 76 1008.1
20260507015226 58 219 0.0 0.0 0.00 0.00 0.00 76 1008.1
20260507014225 58 219 0.0 0.0 0.00 0.00 0.00 76 1008.1
20260507013224 58 219 0.0 2.6 0.00 0.00 0.00 76 1008.1
20260507012226 58 219 0.0 0.9 0.00 0.00 0.00 75 1007.8
20260507010224 59 219 0.0 3.5 0.00 0.00 0.00 73 1007.8
20260507005225 60 221 0.0 4.3 0.00 0.00 0.00 72 1007.8
20260507004227 59 205 0.0 1.7 0.00 0.00 0.00 72 1007.5
20260507003230 59 205 0.0 0.0 0.00 0.00 0.00 71 1007.5
20260507002440 59 205 0.0 0.0 0.00 0.00 0.00 70 1007.1
20260507001224 60 205 0.0 0.0 0.00 0.00 0.00 68 1007.1
20260507000226 61 205 0.0 1.7 0.00 0.00 0.00 66 1007.1
20260506235225 61 205 0.0 3.5 0.00 0.00 0.00 65 1007.1
20260506234226 61 205 2.6 4.3 0.00 0.00 0.00 65 1007.1
20260506233440 61 204 0.0 2.6 0.00 0.00 0.00 66 1006.8
20260506232225 61 204 0.0 0.0 0.00 0.00 0.00 65 1006.4
20260506231224 62 204 0.0 2.6 0.00 0.00 0.00 64 1006.4
20260506230225 63 204 0.0 4.3 0.00 0.00 0.00 63 1006.4
20260506225440 63 204 0.9 4.3 0.00 0.00 0.00 63 1006.1
20260506224225 62 360 0.0 3.5 0.00 0.00 0.00 65 1005.8
20260506223225 63 247 0.0 0.9 0.00 0.00 0.00 64 1005.8
20260506222226 63 247 0.0 2.6 0.00 0.00 0.00 64 1005.4
20260506221225 63 247 0.0 0.9 0.00 0.00 0.00 64 1005.4
20260506220224 64 247 0.0 0.0 0.00 0.00 0.00 63 1005.1
20260506215441 64 247 0.0 0.9 0.00 0.00 0.00 62 1004.7
20260506214226 64 247 0.9 7.0 0.00 0.00 0.00 60 1004.7